Location: Waco, TX
(31.5480°N, 97.1670°W)
Time: 00:31:51
(UTC-06:00)

ISS - Pass Details

Date: 16 December 2017
Orbit: 403 x 407 km, 51.6° (Epoch: 12 December)

Event Time Altitude Azimuth Distance (km) Brightness Sun altitude
Rises 11:17:30 0° 249° (WSW) 2,313 0.1 32.8°
Reaches altitude 10° 11:19:47 10° 262° (W) 1,457 -1.0 33.0°
Maximum altitude 11:22:35 26° 321° (NW) 848 -2.4 33.1°
Drops below altitude 10° 11:25:23 10° 20° (NNE) 1,463 -1.3 33.3°
Sets 11:27:42 0° 34° (NE) 2,326 -0.3 33.5°
